Date String (YYYY-MM-DD hh:mm:ss) UTC,Instrument flags,absolute air pressure of the measurement (hPa),sample flow rate (lpm),inlet stack bypass flow (lpm),air temperature of the measurement (°C),ambient temperature measured by the external sensor (°C),aerosol sample conditioner tube jacket temperature (°C),OPC LED temperature (°C),internal box temperature (°C),relative humidity of the measurement (%),span deviation,mass concentration of particles derived from Lorenz-Mie calculation of OPC scattering (μg/m³),mass concentration of particles derived from Lorenz-Mie calculation of OPC scattering (μg/m³),mass concentration of particles derived from Lorenz-Mie calculation of OPC scattering (μg/m³)
DateTimeUTC,F1_M11,P_M11,Q1_M11,Q2_M11,T1_M11,T2_M11,T3_M11,T4_M11,T5_M11,U1_M11,ZSPAN_M11,X0_M11,X2_M11,X1_M11
2024-05-21 17:00:00,SystemResetWarning,0824.2,5.00,000.00,027.8,027.2,000.0,036.1,029.6,019.8,0000.0,0005.37,0002.43,0001.88
2024-05-21 17:01:00,SystemResetWarning,0824.1,5.01,000.00,027.8,027.2,000.0,036.1,029.6,019.4,0000.0,0005.25,0002.40,0001.88
2024-05-21 17:02:00,SystemResetWarning,0824.1,5.01,000.00,027.9,027.2,000.0,036.1,029.6,019.1,0000.0,0005.09,0002.39,0001.90
2024-05-21 17:03:00,SystemResetWarning,0824.1,5.00,000.00,027.9,027.2,000.0,036.1,029.6,019.2,0000.0,0005.07,0002.41,0001.92
2024-05-21 17:04:00,SystemResetWarning,0824.2,4.99,000.00,027.9,027.2,000.0,036.1,029.6,019.4,0000.0,0005.11,0002.41,0001.92
2024-05-21 17:05:00,SystemResetWarning,0824.3,5.00,000.00,027.9,027.2,000.0,036.1,029.6,020.0,0000.0,0005.06,0002.42,0001.92
2024-05-21 17:06:00,SystemResetWarning,0824.3,4.99,000.00,027.9,027.2,000.0,036.1,029.6,019.5,0000.0,0005.01,0002.46,0001.92
2024-05-21 17:07:00,SystemResetWarning,0824.2,5.01,000.00,027.9,027.2,000.0,036.1,029.7,019.9,0000.0,0004.95,0002.45,0001.93
2024-05-21 17:08:00,SystemResetWarning,0824.2,5.01,000.00,027.9,027.2,000.0,036.1,029.7,019.6,0000.0,0004.93,0002.45,0001.94
2024-05-21 17:09:00,SystemResetWarning,0824.2,4.98,000.00,027.9,027.2,000.0,036.2,029.7,019.5,0000.0,0003.88,0002.50,0001.99
2024-05-21 17:10:00,SystemResetWarning,0824.1,5.01,000.00,027.9,027.3,000.0,036.2,029.7,019.7,0000.0,0004.58,0002.64,0002.04
2024-05-21 17:11:00,SystemResetWarning,0824.1,5.02,000.00,028.0,027.3,000.0,036.2,029.7,020.3,0000.0,0005.07,0002.72,0002.06
2024-05-21 17:12:00,SystemResetWarning,0824.2,4.99,000.00,028.0,027.3,000.0,036.2,029.7,020.7,0000.0,0005.99,0002.77,0002.09
2024-05-21 17:13:00,SystemResetWarning,0824.2,4.99,000.00,028.0,027.3,000.0,036.2,029.8,021.0,0000.0,0006.27,0002.87,0002.11
2024-05-21 17:14:00,SystemResetWarning,0824.2,5.00,000.00,028.0,027.3,000.0,036.2,029.7,019.5,0000.0,0006.26,0002.87,0002.11
2024-05-21 17:15:00,SystemResetWarning,0824.2,4.99,000.00,028.0,027.3,000.0,036.2,029.7,019.7,0000.0,0007.41,0002.88,0002.15
2024-05-21 17:16:00,SystemResetWarning,0824.2,5.01,000.00,028.0,027.3,000.0,036.2,029.8,020.0,0000.0,0007.38,0002.88,0002.19
2024-05-21 17:17:00,SystemResetWarning,0824.2,5.01,000.00,028.0,027.3,000.0,036.2,029.8,020.0,0000.0,0007.33,0002.89,0002.24
2024-05-21 17:18:00,SystemResetWarning,0824.2,4.99,000.00,028.0,027.4,000.0,036.2,029.8,019.8,0000.0,0007.64,0002.94,0002.28
2024-05-21 17:19:00,SystemResetWarning,0824.2,5.00,000.00,028.0,027.4,000.0,036.3,029.8,019.6,0000.0,0007.70,0002.97,0002.31
2024-05-21 17:20:00,SystemResetWarning,0824.2,5.01,000.00,028.1,027.4,000.0,036.3,029.8,019.2,0000.0,0007.75,0003.00,0002.33
2024-05-21 17:21:00,SystemResetWarning,0824.2,5.01,000.00,028.1,027.4,000.0,036.3,029.8,019.3,0000.0,0007.50,0003.00,0002.36
2024-05-21 17:22:00,SystemResetWarning,0824.2,5.00,000.00,028.1,027.4,000.0,036.3,029.8,019.7,0000.0,0007.22,0002.96,0002.39
2024-05-21 17:23:00,SystemResetWarning,0824.2,5.00,000.00,028.1,027.4,000.0,036.3,029.8,019.5,0000.0,0006.53,0002.97,0002.41
2024-05-21 17:24:00,SystemResetWarning,0824.2,4.99,000.00,028.1,027.4,000.0,036.3,029.8,019.6,0000.0,0006.53,0002.95,0002.41
2024-05-21 17:25:00,SystemResetWarning,0824.2,4.99,000.00,028.1,027.4,000.0,036.3,029.9,019.5,0000.0,0006.56,0002.97,0002.44
2024-05-21 17:26:00,SystemResetWarning,0824.2,5.00,000.00,028.1,027.5,000.0,036.3,029.9,020.0,0000.0,0006.45,0003.02,0002.46
2024-05-21 17:27:00,SystemResetWarning,0824.1,5.02,000.00,028.2,027.5,000.0,036.4,029.9,019.3,0000.0,0006.91,0003.11,0002.48
2024-05-21 17:28:00,SystemResetWarning,0824.1,4.99,000.00,028.2,027.5,000.0,036.4,029.9,019.0,0000.0,0007.02,0003.13,0002.47
2024-05-21 17:29:00,SystemResetWarning,0824.2,4.98,000.00,028.2,027.5,000.0,036.4,029.9,019.0,0000.0,0006.76,0003.15,0002.49
2024-05-21 17:30:00,SystemResetWarning,0824.2,5.02,000.00,028.2,027.5,000.0,036.4,029.9,019.6,0000.0,0006.32,0003.13,0002.48
2024-05-21 17:31:00,SystemResetWarning,0824.2,5.01,000.00,028.2,027.5,000.0,036.4,029.9,019.7,0000.0,0006.23,0003.09,0002.44
2024-05-21 17:32:00,SystemResetWarning,0824.2,4.99,000.00,028.2,027.5,000.0,036.4,029.9,019.8,0000.0,0006.20,0003.03,0002.40
2024-05-21 17:33:00,SystemResetWarning,0824.1,4.99,000.00,028.2,027.6,000.0,036.4,030.0,019.7,0000.0,0006.12,0002.99,0002.38
2024-05-21 17:34:00,SystemResetWarning,0824.1,5.00,000.00,028.2,027.6,000.0,036.4,030.0,020.3,0000.0,0006.03,0002.95,0002.35
2024-05-21 17:35:00,SystemResetWarning,0824.1,5.02,000.00,028.3,027.6,000.0,036.5,030.0,019.5,0000.0,0005.74,0002.96,0002.36
2024-05-21 17:36:00,SystemResetWarning,0824.2,4.99,000.00,028.3,027.6,000.0,036.5,030.0,019.6,0000.0,0005.94,0003.01,0002.36
2024-05-21 17:37:00,SystemResetWarning,0824.1,5.00,000.00,028.3,027.6,000.0,036.5,030.0,019.3,0000.0,0005.47,0003.02,0002.38
2024-05-21 17:38:00,SystemResetWarning,0824.0,5.00,000.00,028.3,027.6,000.0,036.5,030.0,019.2,0000.0,0004.81,0003.04,0002.43
2024-05-21 17:39:00,SystemResetWarning,0824.0,4.99,000.00,028.3,027.6,000.0,036.5,030.0,019.2,0000.0,0004.79,0003.06,0002.47
2024-05-21 17:40:00,SystemResetWarning,0824.0,5.00,000.00,028.3,027.6,000.0,036.5,030.0,019.4,0000.0,0004.81,0003.11,0002.54
2024-05-21 17:41:00,SystemResetWarning,0824.0,5.01,000.00,028.3,027.6,000.0,036.5,030.1,019.7,0000.0,0004.98,0003.15,0002.60
2024-05-21 17:42:00,SystemResetWarning,0824.0,5.01,000.00,028.3,027.7,000.0,036.6,030.1,019.8,0000.0,0005.18,0003.17,0002.65
2024-05-21 17:43:00,SystemResetWarning,0824.0,4.99,000.00,028.3,027.7,000.0,036.6,030.1,020.2,0000.0,0005.56,0003.21,0002.69
2024-05-21 17:44:00,SystemResetWarning,0823.9,4.99,000.00,028.4,027.7,000.0,036.6,030.1,019.9,0000.0,0005.61,0003.23,0002.71
2024-05-21 17:45:00,SystemResetWarning,0823.9,4.99,000.00,028.4,027.7,000.0,036.6,030.1,019.9,0000.0,0005.53,0003.24,0002.73
2024-05-21 17:46:00,SystemResetWarning,0823.9,5.00,000.00,028.4,027.7,000.0,036.6,030.1,020.0,0000.0,0005.46,0003.22,0002.73
2024-05-21 17:47:00,SystemResetWarning,0823.8,5.02,000.00,028.4,027.7,000.0,036.6,030.1,019.8,0000.0,0005.39,0003.24,0002.78
2024-05-21 17:48:00,SystemResetWarning,0823.8,5.00,000.00,028.4,027.7,000.0,036.6,030.2,020.5,0000.0,0005.32,0003.31,0002.89
2024-05-21 17:49:00,SystemResetWarning,0823.8,4.99,000.00,028.4,027.7,000.0,036.6,030.2,020.3,0000.0,0005.38,0003.35,0002.96
2024-05-21 17:50:00,SystemResetWarning,0823.8,5.00,000.00,028.4,027.7,000.0,036.6,030.2,019.6,0000.0,0005.50,0003.42,0003.06
2024-05-21 17:51:00,SystemResetWarning,0823.7,5.00,000.00,028.4,027.7,000.0,036.6,030.2,019.8,0000.0,0005.53,0003.45,0003.11
2024-05-21 17:52:00,SystemResetWarning,0823.7,5.02,000.00,028.4,027.7,000.0,036.6,030.2,019.4,0000.0,0005.56,0003.50,0003.15
2024-05-21 17:53:00,SystemResetWarning,0823.7,5.00,000.00,028.4,027.7,000.0,036.7,030.2,020.1,0000.0,0005.47,0003.57,0003.21
2024-05-21 17:54:00,SystemResetWarning,0823.7,5.00,000.00,028.5,027.8,000.0,036.7,030.2,019.8,0000.0,0005.12,0003.60,0003.26
2024-05-21 17:55:00,SystemResetWarning,0823.7,4.99,000.00,028.5,027.8,000.0,036.7,030.2,019.9,0000.0,0005.26,0003.64,0003.30
2024-05-21 17:56:00,SystemResetWarning,0823.7,5.00,000.00,028.5,027.8,000.0,036.7,030.2,019.9,0000.0,0005.35,0003.69,0003.35
2024-05-21 17:57:00,SystemResetWarning,0823.7,5.00,000.00,028.5,027.8,000.0,036.7,030.2,019.7,0000.0,0007.17,0003.75,0003.41
2024-05-21 17:58:00,SystemResetWarning,0823.7,5.00,000.00,028.5,027.8,000.0,036.7,030.2,019.5,0000.0,0008.40,0003.80,0003.46
2024-05-21 17:59:00,SystemResetWarning,0823.8,5.01,000.00,028.5,027.8,000.0,036.7,030.2,019.8,0000.0,0008.44,0003.81,0003.45
